Location: ?????????
(38.5999°N, 22.7695°E)
Time: 11:33:16
(UTC+00:00)

H-2A R/B - Pass Details

Date: 23 May 2024
Orbit: 553 x 571 km, 98.1° (Epoch: 18 June)

Event Time Altitude Azimuth Distance (km) Brightness Sun altitude
Rises 00:38:36 0° 5° (N) 2,749 7.9 -23.1°
Reaches altitude 10° 00:40:49 10° 358° (N) 1,846 6.7 -22.8°
Enters shadow 00:44:19 42° 299° (WNW) 806 4.0 -22.4°
